Location: Fuglau
(48.6333°N, 15.5500°E)
Time: 10:58:55
(UTC+00:00)

STARLINK-39 - Pass Details

Date: 27 February 2020
Orbit: 529 x 530 km, 53.0° (Epoch: 05 April)

Event Time Altitude Azimuth Distance (km) Brightness Sun altitude
Rises 17:21:16 0° 272° (W) 2,668 9.6 -8.0°
Reaches altitude 10° 17:23:33 10° 278° (W) 1,780 7.8 -8.4°
Maximum altitude 17:27:27 46° 353° (N) 723 4.3 -9.0°
Enters shadow 17:31:07 11° 66° (ENE) 1,692 5.5 -9.6°
